Location: Garmisch-Partenkirchen
(47.4984°N, 11.0914°E)
Time: 01:52:03
(UTC+01:00)

ISS - Visible Passes

Search period start: 29 November 2021 00:00
Search period end: 09 December 2021 00:00
Orbit: 417 x 423 km, 51.6° (Epoch: 28 November)

Date Brightness Start Highest point End Pass type
(mag) Time Alt. Az. Time Alt. Az. Time Alt. Az.
29 Nov -3.1 17:05:20 10° W 17:08:36 44° N 17:11:54 10° ENE visible
29 Nov -2.4 18:42:33 10° WNW 18:44:54 34° NW 18:44:54 34° NW visible
30 Nov -3.0 17:55:19 10° WNW 17:58:34 40° N 17:59:38 30° NE visible
30 Nov -0.5 19:32:14 10° WNW 19:32:37 13° WNW 19:32:37 13° WNW visible
01 Dec -3.0 17:08:02 10° WNW 17:11:16 39° N 17:14:23 11° ENE visible
01 Dec -2.6 18:45:01 10° WNW 18:47:22 39° NW 18:47:22 39° NW visible
02 Dec -3.5 17:57:48 10° WNW 18:01:09 53° NNE 18:02:11 36° ENE visible
02 Dec -0.4 19:34:44 10° WNW 19:35:10 13° WNW 19:35:10 13° WNW visible
03 Dec -3.2 17:10:33 10° WNW 17:13:51 45° N 17:17:04 10° E visible
03 Dec -2.7 18:47:26 10° WNW 18:50:04 46° W 18:50:04 46° W visible
04 Dec -3.8 18:00:10 10° WNW 18:03:34 88° SSW 18:05:04 31° ESE visible
04 Dec -0.3 19:37:39 10° W 19:38:05 12° W 19:38:05 12° W visible
05 Dec -3.7 17:12:55 10° WNW 17:16:18 68° NNE 17:19:41 10° ESE visible
05 Dec -1.9 18:50:01 10° W 18:52:55 27° SW 18:53:16 26° SSW visible
06 Dec -2.5 18:02:33 10° WNW 18:05:46 40° SW 18:08:41 12° SE visible
07 Dec -3.2 17:15:11 10° WNW 17:18:33 61° SSW 17:21:54 10° SE visible
07 Dec -0.5 18:53:42 10° WSW 18:54:47 11° SW 18:55:53 10° SSW visible
08 Dec -0.8 18:05:22 10° W 18:07:42 17° SW 18:10:01 10° S visible
